{"data":{"norad_id":59023,"intl_designator":"2024-038A","name":"STARLINK-30996","alt_names":[],"object_type":"PAYLOAD","status":"ACTIVE","operator":null,"country":"US","launch_date":"2024-02-25","launch_site_code":"AFETR","launch_vehicle":null,"mission":null,"orbit_class":"UNKNOWN","rcs_meters":null,"size_class":null,"mass_kg":null,"dimensions":null,"purposes":["comms"],"wikipedia_slug":null,"has_3d_model":false,"image_url":null,"decayed_at":null,"tle_current":{"epoch":"2026-05-25T03:57:15.187104Z","epoch_age_seconds":64836,"freshness":"FRESH","line1":"1 59023U 24038A   26145.16475911  .00001444  00000+0  61993-4 0  9992","line2":"2 59023  43.0003 315.1641 0001303 271.0062  89.0640 15.27578091127829","mean_motion":15.27578091,"eccentricity":0.0001303,"inclination_deg":43.0003,"raan_deg":315.1641,"arg_perigee_deg":271.0062,"mean_anomaly_deg":89.064,"bstar":6.1993e-5,"rev_number":12782,"period_min":94.266866517923,"perigee_km":482.16079898522,"apogee_km":483.9488255715,"semimajor_km":6861.1918122784,"source":"CELESTRAK","updated_at":"2026-05-25T13:38:18.822069Z"}}}